Погода в Кослане

Поиск расширенной информации на нашем сайте:

Полезная информация:

Новости сайта



02.01.2020
Опубликован Долгосрочный прогноз погоды по городам России и ближнего зарубежья на январь 2020 года.
Карты: Прогноз на январь и февраль 2020 года, Сравнение прогнозируемой аномалии приземной температуры воздуха на январь 2020 года по разным моделям.




Погода в Кослане - сегодня

Время (UTC), дата Ветер
(°,м/с) 
Видим.   Явления Облачность Т
(°С)
Тd
(°С)
f(%) Тe
(°С)
Pmin
(гПа)
dP
(гПа)
Po
(мм)
O2
(г/м3)
Тmin Tmax R s Состояние
почвы
12 29.11.20 100 (В) 20000 м    3/0 средняя 
[Ac trans]
-14.4 -15.8 89 -18               
15 29.11.20 100 (В) 20000 м    3/0 средняя 
[Ac trans]
-15.1 -17 85 -19  1043.7  -1.3  770  330    -14       
18 29.11.20 100 (В) 20000 м    4/0 средняя 
[Ac trans]
-13.5 -15.5 85 -16  1043.3  0.4  770  328           
21 29.11.20 100 (В) 20000 м    4/0 средняя 
[Ac trans]
-11.9 -13.2 90 -14  1042.4  -0.7  769  325           
00 30.11.20 130 (ЮВ) н/о    н/о 
-8.9 -9.5 95 -11               
03 30.11.20 160 (Ю) 20000 м    10/0 средняя 
[Ac As]
-8.5 -9.2 95 -10  1041.2  -0.7  769  321  -15.6      равномерный
сухой снег
100% 
06 30.11.20 160 (Ю) 20000 м  {снег}  10/0 средняя 
[Ac As]
-7.4 -8 95 -7  1040.9  -0.3  768  319           
09 30.11.20 140 (ЮВ) 20000 м    10/10 300 м 
[Sc]
-6.2 -6.6 97 -8  1040.3  -0.5  768  317           
12 30.11.20 130 (ЮВ) 20000 м    10/10 330 м 
[Sc]
-5.2 -6.1 93 -7  1038.9  -1.2  767  316           
15 30.11.20 160 (Ю) 20000 м    10/10 210 м 
[Frnb]
-3.6 -4.4 94 -5  1037.8  -1.1  766  313    -3.5  0.2     
18 30.11.20 130 (ЮВ) 20000 м    10/10 330 м 
[Frnb]
-2.7 -3.7 93 -5  1035.8  -1.8  765  312           
21 30.11.20 140 (ЮВ) 20000 м    4/0 средняя 
[Ac trans]
-3.1 -3.8 95 -6  1034.3  -1.5  764  312           
00 01.12.20 170 (Ю) 20000 м    10/10 360 м 
[Frnb]
-4.1 -5 93 -7  1033.1  -1.3  763  313           
03 01.12.20 170 (Ю) 3{11}  20000 м    10/10 270 м 
[St]
-3.8 -4.3 96 -6  1032  -1.1  762  312  -4.2      равномерный
сухой снег
100% 
06 01.12.20 170 (Ю) 20000 м    10/10 400 м 
[Frnb]
-4.3 -4.9 96 -7  1031.5  -0.5  762  312  -4.3         
09 01.12.20 180 (Ю) 20000 м    10/10 400 м 
[Frnb]
-5.1 -5.8 95 -7  1031  -0.5  761  313           
12 01.12.20 190 (Ю) 20000 м    10/10 450 м 
[Sc]
-5.5 -6.6 92 -8  1030.2  -0.9  761  314           
15 01.12.20 190 (Ю) 20000 м    10/10 480 м 
[Sc]
-5.1 -6.1 93 -9  1029.7  -0.4  760  313    -3.8       
21 01.12.20 210 (ЮЗ) 20000 м  {снег}  10/10 480 м 
[Sc]
-5 -6.7 88 -8  1030.1  0.3  761  313           
00 02.12.20 200 (Ю) 20000 м  {снег}  10/10 450 м 
[Sc]
-5 -6.7 88 -8  1030.3  0.2  761  313           
03 02.12.20 200 (Ю) 10 км  слаб. снег  10/8 450 м средняя 
[Sc|As op]
-4.6 -6.2 89 -8  1030  -0.3  761  312  -5.5    0.6  равномерный
сухой снег
100% 
06 02.12.20 180 (Ю) 4000 м  слаб. снег  10/4 300 м средняя 
[Sc|As op]
-5 -7.1 85 -7  1029.8  -0.2  760  313           
09 02.12.20 200 (Ю) 10 км  {снег}  10/10 450 м 
[Sc]
-4.8 -7.2 83 -8  1030.1  0.3  761  313           
12 02.12.20 210 (ЮЗ) 10 км  {снег}  10/10 330 м 
[Frnb]
-4.6 -4.9 98 -7               
15 02.12.20 220 (ЮЗ) 10 км  слаб. снег  10/8 330 м средняя 
[Frnb|As op]
-3.9 -4.7 94 -5  1031.2  0.7  761  312    -3.8  0.6     
Время (UTC), дата Ветер
(°,м/с) 
Видим.   Явления Облачность Т
(°С)
Тd
(°С)
f(%) Тe
(°С)
Pmin
(гПа)
dP
(гПа)
Po
(мм)
O2
(г/м3)
Тmin Tmax R s Состояние
почвы

Для получения пояснительной информации подведите курсор к названию столбца.

ПОГОДА в Кослане - архив

Всё, что Вы хотите узнать о погоде в Кослане - удобно и подробно!

Выберите нужную дату (начиная с 1 января 2019* года) и нажмите кнопку "Найти".
Будут отображены архивные сводки погоды по пункту Кослан, начиная с указанной даты.


Отображать данные в формате CSV (для использования в таблицах Excel)


Внимание! Наш архив погоды предназначен исключительно для личного некоммерческого использования в познавательных целях. Если Вам необходимы официальные справки о состоянии погоды (для производственных, юридических, коммерческих и т.п. целей), обращайтесь в органы Росгидромета.

*Примечание: данная дата относится к архиву по метеостанциям СССР (Россия, СНГ, Балтия).
Архив по метеостанциям Зарубежной Европы и Азии (кроме Китая) хранится 10 дней, по другим регионам земного шара (Китай, Африка, Америка, Австралия, Океания) - 1 день.

Кослан - район местоположения метеостанции


Название, широта, долгота, высота метеостанции:
Кослан 63.4°ш. 48.9°д. 158 м над ур. моря [Российская Федерация]

Дополнительная информация

В oтличие oт бoльшинства пoгoдных сайтoв мы публикуем пoдрoбную метеoинфoрмацию в детальнoм прoфессиoнальнoм фoрмате.

Характеристики температуры и влажнoсти вoздуха измеряются на высoте 2 м в тени вдали oт зданий и деревьев.
Скoрoсть ветра измеряется на высoте 10 м (на урoвне рoста челoвека скoрoсть ветра ниже в 1.5-2 раза). Если метеoстанция нахoдится в гoрoде или в лесу, тo скoрoсть ветра занижена на 2-4 м/с пo сравнению с oткрытым местoм. Скoрoсть ветра над акватoриями крупных рек и oзёр, а также на вершинах хoлмoв на 2-5 м/с выше, чем в oбычных услoвиях.
Атмoсфернoе давление в разных тoчках местнoсти мoжет значительнo oтличаться oт давления на метеoстанции, в зависимoсти oт услoвий рельефа (при пoдъёме на 10 м давление пoнижается примернo на 1 мм рт.ст.).